This is the latest recevied weather packets stored in our database for station/object HB9TJR-3. If no packets are shown the sender has not sent any weather packets the latest 10 day(s).
| Time | Temp. | Humidity | Pressure | Rain* | Wind** | Luminosity | Snow |
|---|---|---|---|---|---|---|---|
| 1777748134 | 13.33° C | 71% | 868.7 hPa | 0 mm | - | - | - |
| 1777747175 | 13.33° C | 69% | 868.6 hPa | 0 mm | - | - | - |
| 1777746214 | 13.89° C | 68% | 868.6 hPa | 0 mm | - | - | - |
| 1777744294 | 13.89° C | 62% | 868.5 hPa | 0 mm | - | - | - |
| 1777743334 | 14.44° C | 58% | 868.5 hPa | 0 mm | - | - | - |
| 1777742374 | 14.44° C | 55% | 868.6 hPa | 0 mm | - | - | - |
| 1777741414 | 15° C | 53% | 868.6 hPa | 0 mm | - | - | - |
| 1777740454 | 15° C | 53% | 868.8 hPa | 0 mm | - | - | - |
| 1777739495 | 15° C | 56% | 868.9 hPa | 0 mm | - | - | - |
| 1777738534 | 15° C | 61% | 869.2 hPa | 0 mm | - | - | - |
| 1777737575 | 15° C | 61% | 869.3 hPa | 0 mm | - | - | - |
| 1777734694 | 15.56° C | 63% | 869.6 hPa | 0 mm | - | - | - |
| 1777733734 | 15.56° C | 64% | 869.8 hPa | 0 mm | - | - | - |
| 1777732775 | 15.56° C | 65% | 869.9 hPa | 0 mm | - | - | - |
| 1777731816 | 15.56° C | 69% | 870 hPa | 0 mm | - | - | - |
| 1777729894 | 15.56° C | 70% | 870.5 hPa | 0 mm | - | - | - |
| 1777728935 | 15° C | 74% | 870.6 hPa | 0 mm | - | - | - |
| 1777727975 | 15.56° C | 73% | 870.7 hPa | 0 mm | - | - | - |
| 1777727014 | 15.56° C | 68% | 870.9 hPa | 0 mm | - | - | - |
| 1777726054 | 15° C | 76% | 871 hPa | 0 mm | - | - | - |
| 1777725094 | 15.56° C | 73% | 871 hPa | 0 mm | - | - | - |
| 1777724135 | 15.56° C | 72% | 871.1 hPa | 0 mm | - | - | - |
| 1777723175 | 15.56° C | 78% | 871.2 hPa | 0 mm | - | - | - |
| 1777720294 | 15° C | 72% | 871.6 hPa | 0 mm | - | - | - |
| 1777719334 | 15° C | 78% | 871.7 hPa | 0 mm | - | - | - |
* Rain latest hour (hover to see other rain measurements)
** Current wind speed in m/s (hover to see current wind gust speed)